Location: *
(50.6611°S, 169.5201°W)
Time: 19:07:37
(UTC+00:00)

Daily predictions for brighter satellites

Satellite Brightness Start Highest point End
(mag) Time Altitude Azimuth Time Altitude Azimuth Time Altitude Azimuth
CZ-4C R/B 4.2 13:25:54 33° E 13:25:54 33° E 13:30:58 10° SE
Cosmos 2227 Rocket 4.4 13:31:47 21° SSE 13:31:47 21° SSE 13:33:38 10° SSE
CENTAUR R/B 4.3 13:44:15 28° ENE 13:44:35 28° ENE 13:50:24 10° ESE
COSMOS 2455 4.3 13:50:48 33° SSE 13:50:48 33° SSE 13:53:59 10° SE
SL-16 R/B 4.3 13:51:08 10° SE 13:56:12 25° E 13:58:09 21° ENE
Cosmos 2297 Rocket 4.3 14:00:15 20° S 14:00:15 20° S 14:02:25 10° SSE
USA 234 3.7 14:04:56 10° ESE 14:10:50 55° S 14:10:50 55° S
H-2A R/B 3.7 14:15:19 30° S 14:15:19 30° S 14:18:14 10° S
Cosmos 2263 Rocket 3.4 14:34:57 35° S 14:34:57 35° S 14:38:26 10° SSE
Cosmos 1655 Rocket 4.2 14:43:35 10° S 14:50:03 72° ESE 14:56:22 10° NNE
NOSS 3-3 (A) 4.3 14:49:15 37° SSW 14:51:50 61° SE 14:57:35 10° ENE
Cosmos 1844 4.2 14:52:45 50° NE 14:53:32 54° ENE 14:59:07 10° SE
Cosmos 2266 Rocket 4.0 14:47:14 10° SSW 14:53:04 72° SSW 14:53:04 72° SSW
Meteor 1-13 Rocket 4.4 14:48:39 10° S 14:54:16 68° ESE 14:59:48 10° NNE
CZ-2C R/B 3.0 14:49:16 10° SSE 14:53:59 63° S 14:53:59 63° S
NOSS 3-3 (C) 4.3 14:55:33 34° SSW 14:58:29 63° SE 15:04:12 10° ENE
ARGOS 3.7 14:53:18 10° NE 14:58:34 57° ESE 15:03:56 10° S
ARIANE 5 R/B 2.7 14:57:45 10° NNE 15:02:52 68° ESE 15:07:59 10° S
BREEZE-M DEB (TANK) 3.8 15:05:15 54° ENE 15:05:15 54° ENE 15:11:28 10° E
Cosmos 1269 Rocket 4.4 15:00:12 10° SSW 15:05:33 62° ESE 15:10:51 10° NE
Meteor 1-14 Rocket 4.2 15:08:51 72° SW 15:08:51 72° SW 15:14:38 10° S
Sich 1 3.7 15:08:53 55° E 15:08:53 55° E 15:13:13 10° SSE
SL-08 ROCKET BODY 4.4 15:03:27 10° SSW 15:08:34 62° SW 15:08:34 62° SW
CZ-4C R/B 2.8 15:11:02 57° WNW 15:12:49 78° SW 15:19:41 10° SE
Cosmos 2227 Rocket 4.0 15:13:35 18° SSW 15:13:35 18° SSW 15:17:05 10° S
Cosmos 1743 Rocket 4.0 15:14:19 60° ENE 15:14:29 60° E 15:18:55 10° SSE
UNK 3.9 15:10:32 10° SSE 15:15:12 68° ENE 15:15:29 66° NE
Cosmos 1844 Rocket 2.6 15:19:02 69° NNW 15:19:45 90° SSW 15:25:28 10° SSE
NOAA 12 4.2 15:18:54 10° NNE 15:24:09 75° ESE 15:29:30 10° SSW
Cosmos 1733 3.9 15:25:55 49° ESE 15:25:55 49° ESE 15:29:07 10° SSE
Cosmos 1125 Rocket 4.1 15:27:09 42° SW 15:27:09 42° SW 15:31:40 10° SSE
Cosmos 220 Rocket 4.4 15:27:46 52° NE 15:27:46 52° NE 15:30:59 10° NNE
Cosmos 967 Rocket 4.4 15:25:52 52° NW 15:27:33 90° SW 15:33:52 10° SE
Cosmos 1536 4.2 15:32:10 28° S 15:32:10 28° S 15:34:14 10° S
ATLAS CENTAUR R/B 1.8 15:31:16 54° S 15:31:16 54° S 15:35:05 10° SE
COSMOS 2455 4.1 15:33:57 25° SW 15:34:48 26° SSW 15:39:49 10° SSE
CENTAUR R/B 2.8 15:31:26 38° NW 15:34:49 89° SW 15:41:29 10° SE
SL-06 R/B (2) 4.4 15:33:27 44° WSW 15:34:57 71° NW 15:43:48 10° NNE
Cosmos 1818 4.4 15:31:07 17° SSW 15:35:05 48° SE 15:40:18 10° ENE
SeaSat 1 2.3 15:30:12 10° NNE 15:35:10 85° WNW 15:38:38 20° SSW
Cosmos 1805 4.3 15:37:04 12° NNE 15:40:17 43° E 15:43:56 10° SSE
SL-16 R/B 2.4 15:34:06 10° SSE 15:40:20 70° WSW 15:43:13 33° NW
BREEZE-M DEB (TANK) 4.5 15:36:24 31° W 15:41:09 54° NW 15:45:16 10° NE
CZ-2D R/B 3.5 15:37:22 10° NNE 15:41:45 88° ESE 15:46:12 10° SSW
IRS-1C 4.1 15:37:12 10° N 15:42:28 56° WNW 15:47:49 10° SSW
BREEZE-M DEB (TANK) 3.1 15:43:20 52° N 15:43:20 52° N 15:48:34 10° ENE
Cosmos 2297 Rocket 4.4 15:42:03 10° SSW 15:43:42 11° SSW 15:45:25 10° S
Meteor 1-11 Rocket 3.6 15:41:39 34° NNW 15:44:11 73° WSW 15:50:01 10° S
DEBRIS 2.6 15:44:47 76° N 15:44:51 76° N 15:50:57 10° E
SL-19 R/B 4.0 15:40:19 10° N 15:45:36 70° WNW 15:51:13 10° SSW
PSLV R/B 4.2 15:43:07 10° NNE 15:47:11 54° ESE 15:51:19 10° S
Cosmos 1862 Rocket 4.1 15:44:02 10° S 15:48:34 63° ESE 15:53:04 10° NNE
Cosmos 2150 Rocket 4.4 15:51:07 43° W 15:51:54 46° WSW 15:57:14 10° SSE
Cosmos 2298 Rocket 4.4 15:51:46 42° WSW 15:52:28 44° WSW 15:57:38 10° SSE
H-2A R/B 3.9 15:55:55 17° SW 15:55:55 17° SW 15:57:19 10° SSW
USA 234 3.8 15:47:30 10° E 15:53:54 55° S 15:58:10 22° WSW
SJ-12 3.7 15:51:16 10° N 15:55:18 76° WNW 15:59:23 10° SSW
SL-08 RB Rocket 3.6 15:52:43 10° N 15:57:15 66° WNW 16:01:49 10° SSW
Cosmos 1833 Rocket 2.9 15:51:40 10° SSW 15:57:25 72° ESE 16:03:05 10° NE
Meteor 2-9 Rocket 4.2 15:56:11 14° NNW 16:01:16 71° WSW 16:07:14 10° S
Okean 1-7 4.2 15:59:28 10° S 16:03:42 44° ESE 16:07:51 10° NNE
Cosmos 1726 4.4 16:07:52 11° SSW 16:07:52 11° SSW 16:08:04 10° SSW
BREEZE-M R/B 3.4 16:06:25 38° N 16:06:25 38° N 16:09:08 10° NE
SL-08 R/B 4.4 16:00:07 10° S 16:06:24 86° W 16:12:40 10° N
IRS-P3 4.4 16:01:28 10° N 16:06:36 45° W 16:11:49 10° SSW
Nadezhda 2 Rocket 4.4 16:04:11 10° SSW 16:10:34 70° W 16:16:46 10° N
Cosmos 1553 Rocket 4.0 16:04:56 10° N 16:11:02 85° E 16:17:15 10° S
Cosmos 2082 Rocket 3.7 16:06:10 10° SSW 16:11:23 36° SE 16:16:34 10° ENE
Cosmos 1400 Rocket 2.6 16:13:10 10° SSW 16:17:05 83° W 16:20:55 10° N
Cosmos 2228 Rocket 3.3 16:13:12 10° SSW 16:17:44 51° W 16:22:11 10° N
Cosmos 1805 Rocket 4.2 16:17:14 32° W 16:17:46 34° WSW 16:21:52 10° S
Cosmos 2263 Rocket 3.9 16:16:38 15° SW 16:18:11 16° SSW 16:21:41 10° S
Cosmos 1975 2.7 16:15:38 10° NNW 16:19:38 81° WSW 16:23:43 10° S
Okean 2 4.3 16:15:50 10° S 16:19:53 52° ESE 16:23:55 10° NNE
Cosmos 1707 Rocket 3.6 16:15:37 10° SSW 16:20:02 56° W 16:24:22 10° N
Cosmos 2251 Rocket 3.9 16:15:13 10° SSW 16:20:40 71° ESE 16:26:02 10° NNE
Cosmos 2278 Rocket 4.1 16:15:46 10° NNE 16:20:42 31° ENE 16:25:40 10° SE
Cosmos 1666 Rocket 3.4 16:16:50 10° NNW 16:21:14 79° W 16:25:40 10° S
BREEZE M DEB (TANK) 3.5 16:19:35 21° NNW 16:21:22 42° NNE 16:27:45 10° ESE
EXPRESS MD2 4.1 16:22:45 18° N 16:22:45 18° N 16:23:48 10° NNE
BREEZE-M DEB (TANK) 2.9 16:28:07 35° WNW 16:29:00 54° NNW 16:31:21 10° ENE
CZ-2D R/B 3.3 16:27:24 10° N 16:31:03 51° W 16:34:45 10° SSW
SL-14 R/B 3.5 16:28:13 10° SSW 16:31:57 43° W 16:35:40 10° NNW
CZ-2C R/B 4.2 16:30:44 10° SSW 16:34:22 18° SW 16:35:28 17° WSW
Cosmos 1340 2.4 16:31:13 10° N 16:34:44 89° ENE 16:38:18 10° SSE
Cosmos 1844 4.4 16:34:41 20° W 16:37:55 35° SW 16:43:11 10° SSE
ARGOS 4.0 16:34:44 10° NNW 16:39:11 26° W 16:43:41 10° SW
Timation 2 Rocket 4.2 16:35:57 15° WNW 16:40:40 48° SW 16:46:35 10° SSE
Meteor 1-21 4.5 16:35:59 10° SSW 16:41:38 49° W 16:47:09 10° NNW
NOSS 3-3 (A) 4.4 16:36:45 11° SW 16:42:21 35° WNW 16:47:23 10° N
ARIANE 5 R/B 3.7 16:38:38 10° NW 16:42:25 20° W 16:46:11 10° SW
NOSS 3-2 (A) 4.2 16:36:28 13° WNW 16:44:15 62° SW 16:51:35 10° SE
Sich 1 4.4 16:45:40 18° W 16:46:41 20° WSW 16:49:59 10° SSW
Cosmos 1190 Rocket 4.3 16:42:59 10° SSW 16:48:18 71° ESE 16:53:32 10° NNE
NOSS 3-3 (C) 4.5 16:43:19 10° SW 16:48:58 33° WNW 16:53:52 10° N
Okean 3 3.8 16:46:16 10° SSW 16:50:21 44° W 16:54:24 10° NNW
Cosmos 1745 Rocket 4.0 16:46:46 10° SSW 16:53:07 65° W 16:59:21 10° N
Helios 1B rocket 2.3 16:49:18 10° NNE 16:53:17 88° WNW 16:57:19 10° SSW
CORIOLIS 4.2 16:48:36 10° N 16:54:03 69° WNW 16:59:33 10° SSW
DMSP B5D2-2 4.2 16:50:10 10° S 16:55:25 58° WSW 17:00:36 10° NNW
Meteor 1-31 Rocket 2.8 16:51:51 10° NNE 16:55:36 81° ESE 16:59:23 10° SSW
Cosmos 1633 Rocket 3.5 16:55:50 10° NW 17:00:03 41° WSW 17:04:20 10° S
Cosmos 1356 Rocket 3.7 16:56:28 10° SSW 17:00:36 47° W 17:04:38 10° N
SAR-Lupe-2 3.9 16:57:33 10° NNE 17:01:10 72° ESE 17:04:50 10° S
CZ-4C R/B 3.6 16:56:10 13° W 17:02:15 35° SSW 17:07:59 10° SE
USA 238 DEB 4.1 16:55:00 10° NW 17:02:52 79° NE 17:10:12 10° SE
USA 238 4.2 16:55:07 10° NW 17:03:00 79° NE 17:10:19 10° SE
Cosmos 1844 Rocket 3.9 17:00:43 13° W 17:04:26 23° SW 17:08:57 10° SSE
CZ-2C R/B 2.6 17:02:05 10° N 17:05:39 59° WNW 17:09:15 10° SSW
Cosmos 1607 3.9 16:59:35 10° SW 17:05:41 69° NW 17:11:50 10° NNE
Cosmos 1954 Rocket 4.3 17:00:39 10° SSW 17:05:55 74° ESE 17:11:07 10° NNE
Cosmos 2242 Rocket 4.5 17:04:03 10° S 17:08:40 57° ESE 17:13:12 10° NNE
ATLAS CENTAUR R/B 3.2 17:06:24 11° WSW 17:09:24 19° SSW 17:12:32 10° SSE
YAOGAN 1 4.4 17:06:01 10° NE 17:09:57 34° ESE 17:13:56 10° S
COSMOS 2406 3.6 17:05:12 10° SSW 17:10:57 71° ESE 17:16:39 10° NE
SL-24 DEB 4.3 17:06:42 10° N 17:11:16 54° W 17:15:51 10° SSW
Cosmos 1140 Rocket 4.2 17:07:29 10° SW 17:12:05 32° WNW 17:16:38 10° NNW
SeaSat 1 4.0 17:10:27 10° NW 17:13:18 15° WNW 17:16:10 10° WSW
YAOGAN 11 4.1 17:09:08 10° SSE 17:13:32 87° WSW 17:17:54 10° NNW
ADEOS Rocket 4.4 17:06:46 10° NE 17:14:18 56° ESE 17:21:52 10° S
Cosmos 1703 Rocket 3.7 17:11:07 10° SSW 17:15:33 54° W 17:19:53 10° N
Cosmos 1818 4.1 17:13:35 10° SW 17:18:36 40° WNW 17:23:35 10° N
COSMO-SKYMED 1 3.6 17:14:30 10° SSE 17:18:53 54° E 17:23:11 10° N
GENESIS II 4.4 17:18:13 10° WNW 17:21:37 42° SW 17:25:05 10° SSE
SL-16 R/B 4.0 17:18:56 10° S 17:22:53 18° SW 17:26:50 10° W
Cosmos 1943 Rocket 3.2 17:17:29 10° N 17:22:56 52° ENE 17:28:24 10° SE
Blok-L 4.3 17:17:33 10° WNW 17:23:07 32° SW 17:25:04 10° SSE
Cosmos 407 Rocket 4.0 17:18:23 10° SW 17:23:11 37° WNW 17:27:57 10° N
Cosmos 1470 2.6 17:19:50 10° NNW 17:23:40 81° W 17:27:31 10° S
S3M 4.2 17:17:27 10° NNW 17:23:44 55° WSW 17:30:07 10° S
CENTAUR R/B 3.4 17:19:18 10° W 17:26:09 36° SSW 17:31:50 10° SE
Meteor 1-4 Rocket 2.2 17:25:54 10° SSW 17:29:09 75° WNW 17:32:22 10° N
SMAP 3.9 17:26:07 10° NNW 17:30:17 31° W 17:34:31 10° SSW
GEOS 3 Rocket 3.8 17:25:52 10° SE 17:31:00 56° SW 17:36:10 10° WNW
